Theta_e
311 310 309 310 310 310 310 309 302 301 302 305 307 301 299 298 300 305 307 313 313 311 311 310 309 309 303 297 298 296 297 299 301 309 312 314 317 315 317 316 316 317 318 317 315 314 314
310 310 309 310 309 309 309 308 305 303 300 302 299 296 296 297 297 303 306 311 309 309 309 307 303 300 298 295 296 296 297 298 298 301 307 313 316 315 317 316 314 313 314 315 312 308 308
310 309 309 309 309 309 308 304 299 301 300 298 297 295 295 297 297 303 304 309 311 305 304 306 308 303 296 296 296 297 298 298 298 299 305 308 310 315 315 315 313 314 315 313 308 306 307
308 309 308 309 309 308 305 300 297 298 298 296 295 295 295 297 297 302 303 307 309 306 305 305 301 298 295 295 296 297 297 297 299 299 299 306 311 312 309 311 311 310 310 309 304 304 301
307 308 308 308 308 308 305 300 296 296 295 294 295 294 294 297 296 301 300 304 305 302 299 302 298 296 296 295 295 297 296 295 297 299 301 307 303 298 297 303 303 300 302 301 301 300 302
305 306 307 307 307 306 303 300 296 295 294 294 294 294 295 296 296 301 301 299 298 300 298 297 296 295 295 296 295 296 297 296 296 296 296 296 295 294 295 295 297 297 299 301 300 300 294
303 306 306 305 305 302 303 297 298 295 294 293 294 294 296 297 296 295 302 302 298 294 295 293 294 293 295 295 295 295 296 295 294 293 293 292 293 293 295 296 296 294 296 296 295 296 294
302 304 305 304 301 298 297 295 295 295 294 292 294 294 296 297 295 297 300 297 298 295 294 295 294 294 296 295 294 294 295 293 293 292 293 291 292 292 296 294 293 292 291 291 293 294 294
301 303 305 304 302 297 296 295 295 294 293 292 294 294 296 297 296 296 298 297 301 300 295 296 295 294 294 294 293 293 294 293 291 292 290 290 292 296 295 290 291 290 290 291 292 294 293
301 302 303 303 301 296 295 295 294 294 293 292 294 294 295 298 296 294 294 299 301 302 295 295 295 294 294 294 293 294 294 292 291 291 291 291 291 294 292 291 289 291 291 292 293 292 291
301 302 301 301 297 295 295 294 294 294 292 292 294 294 293 294 293 294 295 300 302 301 299 295 294 295 293 292 292 293 293 292 290 290 288 289 291 291 291 289 289 291 291 292 292 292 289
301 300 302 301 297 295 295 294 294 293 292 292 293 293 293 293 295 295 300 302 302 299 297 294 293 293 292 291 292 292 291 291 292 291 290 291 290 291 290 289 289 291 291 291 290 288 284
302 301 303 302 297 295 295 294 294 293 292 292 293 293 294 295 294 296 302 301 295 297 293 294 293 293 292 291 291 291 291 289 291 290 290 290 290 290 289 289 290 290 289 290 290 289 289
301 299 302 301 297 295 295 294 293 292 291 292 294 295 294 294 294 296 301 292 297 295 294 293 293 291 292 291 290 292 291 291 289 288 289 290 289 289 288 289 290 290 291 290 290 290 291
302 301 302 301 298 295 294 293 293 291 291 293 295 295 293 294 295 296 291 294 295 294 293 293 291 291 291 292 290 290 290 292 289 287 284 285 288 288 289 289 289 291 291 289 290 288 290
303 302 301 301 297 295 294 295 295 291 291 293 296 296 293 294 296 294 294 296 293 293 293 292 291 291 292 290 288 289 291 288 288 287 286 283 283 288 289 289 288 287 285 287 286 288 289
303 302 302 300 296 295 293 294 293 291 292 296 296 294 293 294 293 290 293 293 293 292 292 292 291 291 290 288 288 290 290 287 286 286 287 288 284 286 289 287 286 286 280 279 278 280 287
301 302 302 298 297 295 293 294 290 290 294 297 292 293 293 293 291 289 291 292 293 292 291 292 289 290 289 287 287 291 288 287 284 285 284 286 284 286 286 280 280 280 275 270 279 281 281
303 305 303 298 296 295 293 292 290 290 294 295 291 291 293 292 290 291 291 290 290 291 291 291 290 289 287 286 282 287 287 284 283 285 283 282 281 281 283 280 283 280 277 275 271 272 274
303 304 302 298 297 296 294 292 289 289 293 295 293 294 290 288 288 290 291 290 290 289 289 289 288 286 285 285 284 281 285 286 284 284 286 282 272 279 280 281 279 278 279 277 276 272 271
303 302 300 297 297 295 295 292 289 289 294 295 291 294 290 290 290 289 290 290 289 289 288 288 287 286 280 279 284 285 284 284 282 281 277 275 275 278 276 273 275 275 277 276 275 272 273
303 300 302 298 297 297 295 291 289 289 294 293 293 292 288 287 288 288 287 286 289 287 287 288 285 285 281 278 280 279 278 279 280 278 273 268 271 272 273 275 276 274 274 272 273 272 268
303 303 303 298 298 297 294 291 289 289 294 293 291 288 290 290 287 286 286 287 288 286 286 287 282 282 282 284 281 279 276 275 275 274 268 264 268 269 271 275 273 272 273 275 271 267 266
303 303 302 299 298 296 294 290 289 290 292 293 292 289 290 291 289 289 287 286 287 285 281 281 281 278 280 279 278 276 273 272 269 265 268 263 263 264 269 268 271 274 264 268 271 269 264
303 302 301 300 298 297 293 291 289 289 291 293 292 289 289 288 289 286 286 284 282 280 281 283 282 280 280 279 275 275 278 276 275 271 266 262 263 265 273 268 273 272 271 269 268 271 264
304 302 301 299 297 296 293 292 289 291 293 293 292 289 288 287 287 287 283 283 281 277 278 281 279 280 281 280 276 277 280 278 274 273 270 266 260 269 262 270 272 274 268 257 261 270 267
304 301 300 299 297 294 294 291 290 291 292 292 289 287 285 283 281 282 283 282 280 278 279 280 278 279 279 277 277 277 278 271 275 275 274 268 263 268 266 266 270 268 266 259 270 275 268
303 301 300 299 296 295 294 293 292 290 290 290 285 284 284 280 278 277 279 280 279 279 281 278 278 277 277 280 280 279 275 274 271 271 272 273 269 267 261 265 274 266 265 271 272 261 264
302 300 300 297 295 294 296 293 290 289 287 287 283 282 282 279 276 275 274 275 275 277 277 272 276 277 280 279 277 274 276 270 272 276 267 272 272 273 272 274 264 267 267 266 259 266 263
Wind_Speed
7 8 8 10 10 10 11 12 12 14 15 16 17 18 18 17 18 14 13 15 17 14 16 16 14 9 4 6 3 26 27 12 5 3 3 3 3 4 4 3 1 5 5 5 5 5 7
4 6 7 8 8 9 11 12 14 15 15 16 17 18 18 16 18 11 10 13 19 19 16 15 14 17 7 9 20 25 22 12 13 5 1 2 2 2 1 1 2 3 3 6 9 12 8
5 5 5 5 7 8 10 12 13 15 16 17 17 17 17 15 18 9 8 10 14 17 15 10 5 8 23 7 20 21 21 17 11 7 2 1 1 3 2 4 2 1 3 2 9 9 7
5 5 6 5 6 7 9 11 12 14 16 17 17 16 16 14 17 12 10 9 10 10 6 8 12 14 6 21 21 29 30 19 12 4 2 2 2 4 5 6 5 5 5 4 10 12 6
4 5 5 5 6 7 9 10 12 14 16 17 16 16 15 10 15 12 17 12 13 13 14 6 6 8 4 22 28 25 27 15 8 18 21 14 11 6 9 4 4 8 3 4 6 7 3
4 4 4 4 6 7 9 10 11 13 15 16 15 16 13 8 11 10 16 22 19 5 5 6 15 5 7 6 20 24 15 24 7 4 8 10 6 5 6 6 1 3 3 3 2 3 8
3 4 4 2 5 7 9 10 12 13 15 16 14 15 13 7 10 5 12 2 5 7 20 9 1 7 2 1 17 21 19 19 9 9 5 7 10 6 5 6 4 3 2 3 5 3 5
4 4 5 4 2 5 7 9 11 13 14 16 14 14 12 4 9 8 9 6 3 7 7 4 4 7 3 14 4 19 20 7 9 11 3 7 9 5 6 7 5 4 1 3 5 7 2
4 4 5 6 3 4 6 8 11 13 15 15 13 14 12 4 2 13 14 6 5 6 6 2 4 4 2 10 5 12 9 3 8 9 12 8 3 4 4 7 12 5 3 3 6 4 4
6 5 5 6 4 5 6 8 10 13 14 14 11 12 12 5 2 4 5 3 6 3 4 7 6 6 8 1 6 13 15 2 6 4 3 7 4 6 7 6 5 5 4 6 9 6 3
7 8 6 7 5 5 6 8 9 13 13 13 7 8 7 7 5 4 2 5 6 2 2 3 4 4 8 7 3 13 10 8 8 4 4 2 4 4 4 7 3 7 8 10 12 11 4
9 9 8 7 6 6 7 7 10 12 13 12 5 7 7 5 12 5 5 8 4 3 4 1 3 3 4 6 6 4 8 8 3 4 6 2 3 3 3 6 3 8 6 8 1 3 2
11 10 9 8 7 6 7 8 10 11 13 13 4 4 9 10 2 3 9 3 3 3 1 2 2 2 4 5 6 3 11 12 5 5 7 5 2 3 6 4 5 8 4 4 5 3 4
13 11 10 10 7 6 7 7 9 11 12 11 2 2 5 9 4 8 6 3 3 3 2 1 3 6 4 5 3 6 3 4 7 5 3 3 5 5 7 1 4 6 1 2 5 2 6
15 13 11 11 8 6 8 8 8 11 12 7 1 2 2 13 0 13 4 3 1 3 4 5 4 4 1 2 3 3 4 2 3 5 4 3 4 4 2 3 3 5 3 1 4 3 2
18 15 13 13 8 7 9 8 9 10 10 3 3 2 4 7 10 4 4 3 2 3 4 3 4 2 3 2 1 3 2 2 1 2 2 2 3 2 5 1 6 5 2 2 2 3 5
18 15 15 12 8 9 10 8 9 9 8 2 3 2 5 4 3 5 3 3 3 2 3 2 4 4 3 4 2 1 1 1 1 2 3 3 3 5 2 5 2 3 4 4 2 1 3
19 18 18 12 9 9 9 8 8 7 3 2 4 1 6 4 4 2 3 6 4 3 4 2 4 4 4 5 3 3 4 3 2 1 2 3 3 3 0 3 6 4 4 4 3 5 1
22 20 18 13 10 10 10 7 7 6 1 3 2 1 4 1 4 2 2 3 3 3 1 2 3 3 2 4 4 2 4 4 4 3 3 3 0 2 2 4 1 4 2 3 3 1 5
24 21 18 13 10 11 10 7 7 5 1 3 2 1 3 3 2 6 5 4 4 3 2 4 4 4 4 2 3 4 3 2 3 3 6 3 2 6 6 4 3 2 3 2 4 2 2
28 25 20 15 13 12 11 8 6 4 4 4 2 2 1 1 1 5 3 4 5 5 2 2 2 3 6 3 2 4 3 2 3 5 3 3 5 2 1 2 2 4 4 3 5 5 5
30 26 22 17 16 13 9 8 5 4 6 2 3 3 2 1 2 5 1 5 8 4 5 4 4 5 5 6 7 8 6 3 4 2 3 3 2 3 4 0 3 3 7 6 5 3 6
32 28 25 21 17 14 10 8 6 7 10 3 3 3 4 4 2 4 4 6 7 10 3 2 8 5 4 4 5 3 4 4 5 6 2 3 4 3 4 3 3 6 7 7 3 4 6
33 33 26 22 19 15 11 8 7 8 14 5 5 5 3 3 3 4 6 3 8 4 8 1 5 5 5 15 9 7 7 7 7 5 1 4 4 2 3 3 3 5 1 3 6 8 9
36 32 26 23 20 16 12 9 9 8 13 11 8 4 3 2 2 4 9 6 7 5 3 4 2 3 17 5 4 4 3 4 1 0 2 2 4 2 4 3 6 3 5 7 6 7 8
39 33 28 24 21 17 13 9 7 6 12 14 12 7 4 6 7 6 5 5 5 3 3 3 5 12 4 2 3 5 5 5 3 2 4 3 4 4 3 4 5 6 3 4 5 4 9
38 31 28 24 21 16 13 10 9 9 10 13 7 8 5 4 2 3 4 7 6 4 4 5 5 2 2 2 2 3 4 2 4 7 6 1 2 5 3 3 8 5 7 5 5 6 6
35 30 26 26 19 16 12 10 9 9 10 11 6 7 3 3 1 3 1 4 3 3 5 5 4 1 2 3 4 3 3 5 2 3 6 7 7 4 3 2 8 8 5 8 6 2 5
31 28 27 23 18 15 14 11 11 10 10 6 5 8 9 9 3 3 5 4 3 2 5 1 2 4 5 3 1 3 2 2 2 3 1 2 6 5 9 6 3 19 5 10 4 5 5
Wind_Direction
15 17 15 10 11 11 9 8 16 19 17 16 9 9 10 16 13 16 30 43 43 82 102 110 111 107 60 44 17 340 347 9 18 50 133 124 128 139 153 155 308 206 273 309 359 2 323
19 20 18 16 11 9 5 6 8 12 15 14 16 15 16 21 17 31 50 75 68 77 95 97 83 71 79 58 342 349 356 14 17 27 41 151 150 180 189 209 136 8 348 329 3 2 45
360 13 12 25 14 7 7 6 10 9 11 11 15 18 20 22 20 48 64 92 96 104 102 97 78 40 51 12 356 13 9 20 21 19 45 20 54 71 21 353 5 250 295 347 30 346 31
349 358 8 9 11 10 7 7 11 10 8 9 11 18 21 26 29 64 75 105 102 85 77 90 74 72 94 4 20 26 16 9 25 94 36 20 98 89 28 309 23 28 53 7 20 16 40
335 343 355 0 3 7 7 7 8 11 9 8 8 13 19 31 35 88 74 100 100 76 74 82 44 88 42 8 11 13 16 357 16 74 57 63 72 75 13 44 34 23 354 352 333 47 348
316 330 338 350 357 5 4 3 7 8 9 7 5 8 17 36 32 138 96 90 74 82 51 46 35 62 0 334 2 7 2 21 35 5 32 30 54 69 20 45 109 300 332 318 306 348 66
293 308 316 334 357 1 359 2 359 5 6 4 3 4 11 35 25 36 191 173 24 23 45 95 9 111 297 315 21 7 357 356 24 48 87 16 62 50 64 73 149 160 178 242 291 314 95
289 297 301 304 346 348 355 357 356 359 4 2 5 3 3 39 48 54 157 80 87 152 94 41 72 59 102 42 19 359 13 60 37 55 40 45 42 340 81 55 23 11 105 290 288 313 356
268 269 285 292 314 335 346 354 353 356 0 3 7 7 7 106 71 54 86 79 110 135 95 28 51 70 307 56 42 341 12 65 62 49 54 81 342 38 96 47 14 331 207 262 250 270 255
254 254 263 278 294 317 335 348 352 354 358 1 9 13 25 116 100 67 61 92 142 72 89 342 357 8 355 74 47 15 2 59 45 69 66 79 337 64 40 20 9 305 1 317 307 331 271
241 247 249 259 273 302 322 338 350 350 357 358 4 16 32 60 110 62 358 142 157 25 54 352 29 340 6 84 266 347 358 31 75 54 78 227 14 47 68 332 304 251 312 285 272 271 21
237 242 251 255 268 296 314 331 346 347 352 357 353 29 40 92 64 60 118 126 112 63 232 115 44 19 53 28 16 18 12 35 60 61 41 50 302 57 113 307 252 282 298 284 109 105 17
229 235 241 253 262 285 305 325 341 343 352 352 328 50 62 56 69 83 136 80 57 149 332 136 115 69 98 17 21 74 55 44 42 42 359 341 15 353 53 348 322 349 6 345 349 353 243
235 236 236 244 251 278 295 318 336 342 352 353 341 182 56 23 353 153 137 67 217 116 171 171 115 75 83 6 32 28 81 62 26 51 99 34 340 24 358 12 284 299 357 173 281 274 282
232 225 235 240 246 268 286 304 330 341 349 359 126 170 62 347 22 161 89 84 169 166 151 140 91 98 68 15 84 80 59 86 61 26 122 86 276 341 76 26 6 337 43 139 259 258 298
218 219 222 234 244 267 279 298 320 342 343 1 153 131 23 1 124 120 76 129 145 128 131 111 138 127 149 346 93 80 114 281 56 79 178 221 326 275 323 59 52 87 327 36 8 287 284
213 214 221 226 239 261 273 302 322 345 344 91 116 63 3 126 147 51 127 162 139 101 132 125 141 114 130 165 135 137 141 51 25 342 92 127 128 288 25 27 359 354 16 13 141 187 279
223 212 217 217 241 251 273 300 321 344 354 148 105 292 8 151 53 47 131 141 127 135 75 82 90 103 145 165 156 152 148 123 309 150 107 187 158 237 146 44 69 85 152 129 128 291 260
212 205 210 219 235 256 267 293 316 333 16 138 119 262 1 125 149 124 138 79 82 120 146 120 108 102 130 152 113 139 131 117 47 95 158 228 321 356 309 346 127 95 155 159 126 109 231
201 203 211 220 217 242 261 284 310 310 192 136 107 320 353 52 39 133 145 155 127 33 75 79 112 90 97 114 44 179 139 137 104 24 56 130 123 165 196 202 131 206 193 176 164 140 226
202 200 211 215 220 233 253 270 292 283 202 180 38 215 298 217 171 117 103 132 140 163 99 119 76 180 152 115 88 179 139 105 67 355 57 98 177 166 211 182 126 196 228 198 204 210 185
200 201 201 202 217 221 239 264 281 239 190 154 141 141 32 56 77 102 357 206 160 150 143 192 158 142 160 154 181 191 133 186 188 57 66 7 187 99 321 193 141 270 242 230 244 213 267
197 195 196 199 208 222 235 259 263 219 190 135 135 98 105 176 125 112 205 178 176 126 359 17 149 120 136 172 118 93 108 93 137 145 128 87 128 92 261 16 32 318 220 195 218 197 165
197 196 197 196 205 216 226 242 247 226 206 201 162 131 113 202 183 200 155 119 151 133 144 110 96 112 137 114 94 57 53 56 60 21 100 125 91 86 189 35 9 248 267 147 205 236 218
197 197 192 192 203 210 216 225 247 226 209 206 173 156 133 158 155 144 139 114 82 57 82 106 73 141 150 75 74 61 5 21 330 34 356 79 123 80 136 186 298 336 196 173 166 278 196
199 190 191 191 201 205 210 212 221 204 199 205 175 154 116 128 222 125 129 158 138 120 41 79 28 143 74 101 102 162 197 186 227 322 113 66 76 114 94 145 224 233 197 151 103 291 198
192 187 188 192 197 193 198 197 205 195 187 190 152 158 111 113 228 138 163 176 132 113 116 131 161 165 48 118 130 172 225 156 181 180 172 127 10 168 171 215 287 206 142 136 92 236 171
189 191 187 191 186 183 195 195 190 196 187 188 140 156 127 102 27 8 92 139 114 156 151 163 93 242 90 183 165 199 157 210 137 187 181 170 151 188 86 95 278 142 83 166 210 314 161
190 186 184 177 177 183 191 184 174 180 184 181 118 141 119 78 104 90 83 76 50 119 127 328 152 156 164 126 195 108 170 146 151 243 13 262 191 180 184 211 211 192 182 203 167 147 201